Regional Weather Roundup
Issued by NWS Albany, NY

Home | Current Version | Previous Version | Graphics & Text | Print | Product List | Glossary Off
Versions: 1 2 3 4 5 6 7 8 9 10 11 12 13 14 15 16 17 18 19 20 21 22 23 24 25 26 27 28 29 30 31 32 33 34 35 36 37 38 39 40 41 42 43 44 45 46 47 48 49 50

166
ASUS41 KALY 202210
RWRALY

NEW YORK STATE HOURLY WEATHER ROUNDUP
NATIONAL WEATHER SERVICE ALBANY NY
500 PM EST MON FEB 20 2017

NOTE: "FAIR" INDICATES FEW OR NO CLOUDS BELOW 12,000 FEET WITH NO
SIGNIFICANT WEATHER AND/OR NO OBSTRUCTIONS TO VISIBILITY.

NYZ032-033-038>043-046>054-057>066-NYZ062>081-082-084-202300-
EAST


CITY           SKY/WX    TMP DP  RH WIND       PRES   REMARKS
ALBANY         PTCLDY    40  17  39 NE10      30.32R WCI  33
GLENS FALLS    CLEAR     37  15  40 NE12      30.32R WCI  29
POUGHKEEPSIE   CLEAR     43  13  29 N10G18    30.26R
NEWBURGH       CLEAR     45  16  31 E14       30.25R
MONTGOMERY     CLEAR     45  17  32 NE10      30.23R
WHITE PLAINS   CLEAR     47  10  22 N15G21    30.21R
ISLIP          PTCLDY    47  15  27 N12       30.21R
NEW YORK CITY  PTCLDY    54  15  21 N9        30.21R
CENTRAL PARK   CLEAR     52  10  18 N9        30.23R
$$

NYZ005>009-017-018-044>046-055-056-202300-
CENTRAL


CITY           SKY/WX    TMP DP  RH WIND       PRES   REMARKS
FULTON         CLEAR     34  15  46 NW6       30.37S WCI  29
SYRACUSE       MOCLDY    34  16  47 NW8       30.36R WCI  27
ROME           CLEAR     36  20  52 W9        30.35R WCI  29
ELMIRA         CLEAR     42  21  43 NE8       30.31R
BINGHAMTON     CLEAR     36  16  44 N10       30.26R WCI  28
MONTICELLO     CLEAR     41  10  28 NW10      30.24R
$$

NYZ026>034-041>043-087-202300-
NORTH


CITY           SKY/WX    TMP DP  RH WIND       PRES   REMARKS
WATERTOWN      CLEAR     36  13  38 N8        30.37R WCI  30
FORT DRUM      NOT AVBL
OGDENSBURG     FAIR      34  11  38 NE6       30.40R WCI  28
MASSENA        CLEAR     34   8  33 CALM      30.40R
SARANAC LAKE   CLEAR     33   1  25 N6        30.27R WCI  28
PLATTSBURGH    CLEAR     32  16  51 NE8       30.36R WCI  25
$$

NYZ001>004-010>016-019>021-085-202300-
WEST


CITY           SKY/WX    TMP DP  RH WIND       PRES   REMARKS
NIAGARA FALLS  CLEAR     41  24  51 NE9       30.32S
BUFFALO        PTCLDY    43  22  43 NE10      30.32R
DUNKIRK        CLEAR     41  24  51 NE10      30.29F
JAMESTOWN        N/A     45  27  49 NE6       30.25S
WELLSVILLE     CLEAR     45  14  28 N8        30.27S
ROCHESTER      PTCLDY    36  22  56 NE10      30.36S WCI  28
PENN YAN       CLEAR     38  20  48 VRB5      30.33S WCI  34
$$

             KEY
       WCI = WIND CHILL INDEX
       VSB = VISIBILITY
       HX  = HEAT INDEX
$$




USA.gov is the U.S. government's official web portal to all federal, state and local government web resources and services.